This demonstration page uses our WeatherBlox Daily Observations layout. Learn more.

Left ArrowRight Arrow

40.92945, -100.16068

Hourly Observations for April 17, 2021

Temp ( °F °C ) Dew Point ( °F °C ) Humidity (%) Winds ( mph kmh ) Pressure ( in mb ) Visibility ( mi km ) Precip ( " mm )
12:15 am 00:15 Cloudy 37 2.6 35 1.7 94 94 NW 10 17 30.23 1024 10 16.0934 0 0
12:35 am 00:35 Cloudy 37 2.5 35 1.6 94 94 NW 13 20 30.23 1024 10 16.0934 0 0
12:55 am 00:55 Cloudy 37 2.5 35 1.5 93 93 NW 9 15 30.24 1024 10 16.0934 0 0
1:15 am 01:15 Cloudy 37 2.5 35 1.6 94 94 NW 10 17 30.24 1024 10 16.0934 0 0
1:35 am 01:35 Cloudy 37 2.5 35 1.6 94 94 NW 9 15 30.24 1024 10 16.0934 0 0
1:55 am 01:55 Cloudy 36 2.3 35 1.5 95 95 NW 9 15 30.24 1024 10 16.0934 0 0
2:15 am 02:15 Cloudy 37 2.5 35 1.6 94 94 NW 9 15 30.23 1024 10 16.0934 0 0
2:35 am 02:35 Cloudy 37 2.6 35 1.8 95 95 NW 9 15 30.23 1024 10 16.0934 0 0
2:55 am 02:55 Cloudy 37 2.6 35 1.8 95 95 NW 10 17 30.22 1023 10 16.0934 0 0
3:15 am 03:15 Cloudy 37 2.8 35 1.9 94 94 NNW 10 17 30.22 1023 10 16.0934 0 0
3:35 am 03:35 Cloudy 37 2.8 35 1.9 94 94 NNW 9 15 30.22 1023 10 16.0934 0 0
3:55 am 03:55 Cloudy 38 3.1 36 2 93 93 NNW 8 13 30.22 1023 10 16.0934 0 0
4:15 am 04:15 Cloudy 37 3 36 2 93 93 NNW 9 15 30.22 1023 10 16.0934 0 0
4:35 am 04:35 Cloudy 38 3.1 36 2 93 93 NNW 9 15 30.23 1024 10 16.0934 0 0
4:55 am 04:55 Cloudy 38 3.1 36 2 93 93 NNW 8 13 30.23 1024 10 16.0934 0 0
5:15 am 05:15 Cloudy 37 3 36 2.1 94 94 NW 7 11 30.23 1024 10 16.0934 0 0
5:35 am 05:35 Cloudy 37 3 36 2.1 94 94 NW 7 11 30.23 1024 10 16.0934 0 0
5:55 am 05:55 Cloudy 37 3 36 2.1 94 94 WNW 9 15 30.23 1024 10 16.0934 0 0
6:15 am 06:15 Cloudy 38 3.2 36 2.1 93 93 NW 10 17 30.24 1024 10 16.0934 0 0
6:35 am 06:35 Cloudy 38 3.3 35 1.7 89 89 NNW 12 19 30.23 1024 10 16.0934 0 0
6:55 am 06:55 Cloudy 38 3.1 35 1.6 90 90 NNW 6 9 30.25 1024 10 16.0934 0 0
7:15 am 07:15 Cloudy 38 3.1 35 1.6 90 90 NNW 10 17 30.25 1024 10 16.0934 0 0
7:35 am 07:35 Cloudy 37 2.8 35 1.6 92 92 NW 6 9 30.26 1025 10 16.0934 0 0
7:55 am 07:55 Cloudy 37 3 35 1.9 93 93 NW 7 11 30.26 1025 10 16.0934 0 0
8:15 am 08:15 Cloudy 38 3.2 36 2 92 92 NW 7 11 30.26 1025 10 16.0934 0 0
8:35 am 08:35 Cloudy 38 3.5 36 2.1 91 91 NW 8 13 30.25 1024 10 16.0934 0 0
8:55 am 08:55 Cloudy 40 4.5 37 2.7 88 88 NNW 10 17 30.25 1024 10 16.0934 0 0
9:15 am 09:15 Cloudy 42 5.3 37 2.8 84 84 NNW 13 20 30.25 1024 10 16.0934 0 0
9:35 am 09:35 Cloudy 41 5.1 37 2.9 86 86 NW 13 20 30.25 1024 10 16.0934 0 0
9:55 am 09:55 Cloudy 41 5.1 37 2.7 85 85 NNW 15 24 30.25 1024 10 16.0934 0 0
10:15 am 10:15 Cloudy 41 5.1 36 2.4 83 83 NNW 16 26 30.25 1024 10 16.0934 0 0
10:35 am 10:35 Cloudy 41 5.1 36 2.4 83 83 NNW 15 24 30.25 1024 10 16.0934 0 0
10:55 am 10:55 Cloudy 42 5.7 37 3 83 83 NNW 16 26 30.24 1024 10 16.0934 0 0
11:15 am 11:15 Cloudy 43 6.1 37 2.6 79 79 N 17 28 30.23 1024 10 16.0934 0 0
11:35 am 11:35 Mostly Cloudy 44 6.6 37 2.9 77 77 NNW 14 22 30.22 1023 10 16.0934 0 0
11:55 am 11:55 Cloudy 44 6.8 37 2.8 76 76 NNW 15 24 30.22 1023 10 16.0934 0 0
12:15 pm 12:15 Cloudy 45 7.1 35 1.9 70 70 N 14 22 30.22 1023 10 16.0934 0 0
12:35 pm 12:35 Cloudy 45 7.1 35 1.9 70 70 N 13 20 30.22 1023 10 16.0934 0 0
12:55 pm 12:55 Cloudy 45 7.1 36 2.1 71 71 N 12 19 30.22 1023 10 16.0934 0 0
1:15 pm 13:15 Cloudy 45 7.1 36 2 70 70 N 14 22 30.21 1023 10 16.0934 0 0
1:35 pm 13:35 Cloudy 46 7.6 36 2.1 68 68 N 13 20 30.2 1023 10 16.0934 0 0
1:55 pm 13:55 Cloudy 46 7.7 34 1.3 64 64 N 8 13 30.19 1022 10 16.0934 0 0
2:15 pm 14:15 Cloudy 46 7.8 34 0.9 62 62 N 3 6 30.19 1022 10 16.0934 0 0
2:35 pm 14:35 Cloudy 46 7.8 34 1.2 63 63 NNE 12 19 30.2 1023 10 16.0934 0 0
2:55 pm 14:55 Cloudy with Drizzle 44 6.8 37 2.7 75 75 NNW 14 22 30.21 1023 10 16.0934 0 0
3:15 pm 15:15 Cloudy with Light Rain 43 6.1 37 2.6 79 79 WNW 6 9 30.22 1023 10 16.0934 0 0
3:35 pm 15:35 Cloudy with Heavy Rain 44 6.5 35 1.4 70 70 Calm 30.21 1023 10 16.0934 0.01 0.254
3:55 pm 15:55 Cloudy with Light Rain 43 6 36 2.3 77 77 SW 6 9 30.21 1023 10 16.0934 0.04 1.016
4:15 pm 16:15 Cloudy with Drizzle 44 6.5 37 2.9 78 78 SW 8 13 30.19 1022 10 16.0934 0.01 0.254
4:35 pm 16:35 Cloudy 45 7.3 35 1.8 68 68 WNW 9 15 30.18 1022 10 16.0934 0.01 0.254
4:55 pm 16:55 Cloudy 47 8.6 37 2.7 67 67 NNW 14 22 30.16 1021 10 16.0934 0.01 0.254
5:15 pm 17:15 Cloudy 47 8.5 35 1.9 64 64 NNW 14 22 30.17 1022 10 16.0934 0 0
5:35 pm 17:35 Cloudy 47 8.2 35 1.5 63 63 NNW 13 20 30.16 1021 10 16.0934 0 0
5:55 pm 17:55 Cloudy 47 8.3 36 2.2 66 66 NW 16 26 30.17 1022 10 16.0934 0 0
6:15 pm 18:15 Cloudy 46 7.7 36 2.1 68 68 NW 13 20 30.17 1022 10 16.0934 0 0
6:35 pm 18:35 Mostly Cloudy 46 7.8 36 2 67 67 NW 10 17 30.17 1022 10 16.0934 0 0
6:55 pm 18:55 Partly Cloudy 44 6.5 37 2.7 77 77 NW 17 28 30.18 1022 10 16.0934 0 0
7:15 pm 19:15 Partly Cloudy 42 5.6 37 2.6 81 81 NNW 16 26 30.19 1022 10 16.0934 0 0
7:35 pm 19:35 Cloudy 42 5.8 37 2.5 80 80 NNW 8 13 30.19 1022 10 16.0934 0 0
7:55 pm 19:55 Cloudy 42 5.8 37 2.7 81 81 N 5 7 30.19 1022 10 16.0934 0 0
8:15 pm 20:15 Cloudy 42 5.6 37 2.8 82 82 NNE 5 7 30.18 1022 10 16.0934 0 0
8:35 pm 20:35 Mostly Cloudy 41 5 38 3.1 88 88 N 3 6 30.19 1022 10 16.0934 0 0
8:55 pm 20:55 Partly Cloudy 40 4.3 37 2.6 89 89 N 3 6 30.2 1023 10 16.0934 0 0
9:15 pm 21:15 Clear 38 3.2 36 2 92 92 NNW 3 6 30.22 1023 10 16.0934 0 0
9:35 pm 21:35 Clear 37 2.5 34 1.2 91 91 NW 7 11 30.22 1023 10 16.0934 0 0
9:55 pm 21:55 Clear 36 2.1 34 0.9 92 92 NW 6 9 30.24 1024 10 16.0934 0 0
10:15 pm 22:15 Partly Cloudy 35 1.7 33 0.6 93 93 WNW 7 11 30.24 1024 10 16.0934 0 0
10:35 pm 22:35 Clear 35 1.7 33 0.8 94 94 WNW 7 11 30.24 1024 10 16.0934 0 0
10:55 pm 22:55 Partly Cloudy 35 1.6 33 0.7 94 94 WNW 6 9 30.24 1024 10 16.0934 0 0
11:15 pm 23:15 Mostly Cloudy 35 1.6 33 0.8 94 94 W 6 9 30.24 1024 10 16.0934 0 0
11:35 pm 23:35 Cloudy 36 2 34 1.2 95 95 W 6 9 30.23 1024 10 16.0934 0 0
11:55 pm 23:55 Cloudy 35 1.8 34 1 95 95 W 7 11 30.24 1024 10 16.0934 0 0

Powered by AerisWeather